Auburn, IN

1:47 PM EST on November 23, 2017 (GMT -0500)
Auburn

Weather History for KGWB - May, 2014

Change the Weather History Date:

Monday, May 5, 2014

  Actual Average (KFWA) Record (KFWA)
Temperature  
Mean Temperature 50 °F -  
Max Temperature 59 °F 69 °F 89 °F (1952)
Min Temperature 41 °F 45 °F 29 °F (1973)
Degree Days  
Heating Degree Days 15    
Moisture  
Dew Point 32 °F    
Average Humidity 54    
Maximum Humidity 70    
Minimum Humidity 36    
Precipitation  
Precipitation 0.00 in - - ()
Sea Level Pressure  
Sea Level Pressure 30.00 in    
Wind  
Wind Speed 6 mph (East)    
Max Wind Speed 16 mph    
Max Gust Speed 23 mph    
Visibility 10 miles    
Events Rain    
Averages and records for this station are not official NWS values.
T = Trace of Precipitation, MM = Missing Value Source: NWS Daily Summary

Daily Weather History Graph

Daily Weather History Graph

Search for Another Location

Airport or City:

Trip Planner

Search our weather history database for the weather conditions in past years. The results will help you decide how hot, cold, wet, or windy it might be!

Date:

Astronomy

May. 05, 2014 Rise Set
Actual Time 6:32 AM EDT 8:41 PM EDT
Civil Twilight 6:02 AM EDT 9:12 PM EDT
Nautical Twilight 5:24 AM EDT 9:49 PM EDT
Astronomical Twilight 4:43 AM EDT 10:31 PM EDT
Moon 11:51 AM EDT (5/5) 1:25 AM EDT (5/5)
Length of Visible Light 15h 10m
Length of Day
14h 09m
Waxing Crescent, 36% of the Moon is Illuminated
May 5
Waxing Crescent
May 6
First Quarter
May 14
Full
May 21
Last Quarter
May 28
New

Hourly Weather History & Observations

Time (EDT) Temp. Windchill Dew Point Humidity Pressure Visibility Wind Dir Wind Speed Gust Speed Precip Events Conditions
12:15 AM 42.8 °F - 28.4 °F 57% 30.08 in 10.0 mi Calm Calm - N/A   Clear
12:35 AM 42.8 °F 41.1 °F 30.2 °F 61% 30.08 in 10.0 mi NNW 3.5 mph - N/A   Clear
12:55 AM 41.0 °F 37.1 °F 32.0 °F 70% 30.07 in 10.0 mi North 5.8 mph - N/A   Clear
1:15 AM 44.6 °F 43.1 °F 30.2 °F 57% 30.07 in 10.0 mi North 3.5 mph - N/A   Clear
1:35 AM 42.8 °F 41.1 °F 30.2 °F 61% 30.07 in 10.0 mi North 3.5 mph - N/A   Clear
1:55 AM 42.8 °F - 32.0 °F 66% 30.06 in 10.0 mi Calm Calm - N/A   Clear
2:15 AM 42.8 °F 41.1 °F 30.2 °F 61% 30.06 in 10.0 mi NE 3.5 mph - N/A   Clear
2:35 AM 41.0 °F 39.0 °F 32.0 °F 70% 30.05 in 10.0 mi ENE 3.5 mph - N/A   Clear
2:55 AM 41.0 °F 37.1 °F 32.0 °F 70% 30.04 in 10.0 mi ENE 5.8 mph - N/A   Clear
3:15 AM 41.0 °F 39.0 °F 32.0 °F 70% 30.05 in 10.0 mi ENE 3.5 mph - N/A   Clear
3:35 AM 41.0 °F 36.4 °F 32.0 °F 70% 30.03 in 10.0 mi ENE 6.9 mph - N/A   Clear
3:55 AM 42.8 °F 38.6 °F 32.0 °F 66% 30.02 in 10.0 mi ENE 6.9 mph - N/A   Scattered Clouds
4:15 AM 42.8 °F 41.1 °F 32.0 °F 66% 30.03 in 10.0 mi East 3.5 mph - N/A   Clear
4:35 AM 42.8 °F 39.3 °F 32.0 °F 66% 30.03 in 10.0 mi East 5.8 mph - N/A   Clear
4:55 AM 42.8 °F 39.3 °F 32.0 °F 66% 30.03 in 10.0 mi East 5.8 mph - N/A   Scattered Clouds
5:15 AM 42.8 °F - 32.0 °F 66% 30.04 in 10.0 mi Calm Calm - N/A   Scattered Clouds
5:35 AM 42.8 °F 41.1 °F 32.0 °F 66% 30.05 in 10.0 mi ENE 3.5 mph - N/A   Mostly Cloudy
5:55 AM 42.8 °F - 32.0 °F 66% 30.07 in 10.0 mi Calm Calm - N/A   Overcast
6:15 AM 44.6 °F - 32.0 °F 61% 30.05 in 10.0 mi Calm Calm - N/A   Overcast
6:35 AM 44.6 °F 41.4 °F 32.0 °F 61% 30.03 in 10.0 mi East 5.8 mph - N/A Rain Light Rain
6:55 AM 44.6 °F 41.4 °F 33.8 °F 66% 30.02 in 10.0 mi ESE 5.8 mph - N/A Rain Light Rain
7:15 AM 44.6 °F 41.4 °F 32.0 °F 61% 30.01 in 10.0 mi ESE 5.8 mph - N/A   Scattered Clouds
7:35 AM 44.6 °F 42.2 °F 33.8 °F 66% 30.02 in 10.0 mi ESE 4.6 mph - N/A   Clear
7:55 AM 44.6 °F 41.4 °F 33.8 °F 66% 30.00 in 10.0 mi ESE 5.8 mph - N/A   Clear
8:15 AM 44.6 °F 40.2 °F 33.8 °F 66% 30.00 in 10.0 mi East 8.1 mph - N/A   Scattered Clouds
8:35 AM 46.4 °F 42.4 °F 33.8 °F 62% 30.02 in 10.0 mi ESE 8.1 mph - N/A   Mostly Cloudy
8:55 AM 46.4 °F - 32.0 °F 57% 30.04 in 10.0 mi Calm Calm - N/A   Mostly Cloudy
9:15 AM 46.4 °F 44.3 °F 33.8 °F 62% 30.03 in 10.0 mi East 4.6 mph - N/A Rain Light Rain
9:35 AM 48.2 °F - 32.0 °F 54% 30.06 in 10.0 mi ESE 4.6 mph - N/A   Mostly Cloudy
9:55 AM 48.2 °F - 33.8 °F 58% 30.03 in 10.0 mi ESE 9.2 mph - N/A   Mostly Cloudy
10:15 AM 50.0 °F - 33.8 °F 54% 30.03 in 10.0 mi East 10.4 mph - N/A   Clear
10:35 AM 50.0 °F - 32.0 °F 50% 30.03 in 10.0 mi East 11.5 mph - N/A   Mostly Cloudy
10:55 AM 51.8 °F - 32.0 °F 47% 30.03 in 10.0 mi ESE 8.1 mph - N/A   Overcast
11:15 AM 51.8 °F - 32.0 °F 47% 30.02 in 10.0 mi East 9.2 mph 19.6 mph N/A   Overcast
11:35 AM 51.8 °F - 32.0 °F 47% 30.03 in 10.0 mi East 13.8 mph - N/A   Overcast
11:55 AM 51.8 °F - 32.0 °F 47% 30.03 in 10.0 mi East 8.1 mph 17.3 mph N/A   Overcast
12:15 PM 51.8 °F - 30.2 °F 44% 30.03 in 10.0 mi East 10.4 mph 17.3 mph N/A   Overcast
12:35 PM 53.6 °F - 32.0 °F 44% 30.02 in 10.0 mi ESE 8.1 mph - N/A   Overcast
12:55 PM 53.6 °F - 32.0 °F 44% 30.02 in 10.0 mi East 10.4 mph - N/A   Mostly Cloudy
1:15 PM 53.6 °F - 30.2 °F 41% 30.01 in 10.0 mi East 12.7 mph 20.7 mph N/A   Overcast
1:35 PM 55.4 °F - 32.0 °F 41% 30.00 in 10.0 mi East 9.2 mph 16.1 mph N/A   Overcast
1:55 PM 55.4 °F - 30.2 °F 38% 29.99 in 10.0 mi East 10.4 mph 23.0 mph N/A   Overcast
2:15 PM 55.4 °F - 32.0 °F 41% 29.98 in 10.0 mi East 12.7 mph 20.7 mph N/A   Overcast
2:35 PM 55.4 °F - 32.0 °F 41% 29.98 in 10.0 mi East 16.1 mph 20.7 mph N/A   Mostly Cloudy
2:55 PM 55.4 °F - 32.0 °F 41% 29.98 in 10.0 mi East 13.8 mph 18.4 mph N/A   Mostly Cloudy
3:15 PM 55.4 °F - 32.0 °F 41% 29.97 in 10.0 mi East 12.7 mph 19.6 mph N/A   Mostly Cloudy
3:35 PM 57.2 °F - 32.0 °F 38% 29.97 in 10.0 mi East 13.8 mph 21.9 mph N/A   Mostly Cloudy
3:55 PM 59.0 °F - 32.0 °F 36% 29.96 in 10.0 mi ESE 10.4 mph 16.1 mph N/A   Scattered Clouds
4:15 PM 59.0 °F - 32.0 °F 36% 29.95 in 10.0 mi East 13.8 mph 20.7 mph N/A   Scattered Clouds
4:35 PM 57.2 °F - 32.0 °F 38% 29.95 in 10.0 mi ENE 11.5 mph - N/A   Mostly Cloudy
4:55 PM 57.2 °F - 33.8 °F 41% 29.95 in 10.0 mi East 13.8 mph 17.3 mph N/A   Mostly Cloudy
5:15 PM 57.2 °F - 33.8 °F 41% 29.94 in 10.0 mi East 13.8 mph 17.3 mph N/A   Scattered Clouds
5:35 PM 57.2 °F - 33.8 °F 41% 29.93 in 10.0 mi East 12.7 mph - N/A   Scattered Clouds
5:55 PM 59.0 °F - 32.0 °F 36% 29.93 in 10.0 mi East 9.2 mph - N/A   Clear
6:15 PM 59.0 °F - 32.0 °F 36% 29.93 in 10.0 mi East 10.4 mph - N/A   Clear
6:35 PM 57.2 °F - 32.0 °F 38% 29.94 in 10.0 mi ESE 9.2 mph - N/A   Scattered Clouds
6:55 PM 57.2 °F - 33.8 °F 41% 29.94 in 10.0 mi East 8.1 mph - N/A   Scattered Clouds
7:15 PM 55.4 °F - 32.0 °F 41% 29.95 in 10.0 mi East 6.9 mph - N/A   Scattered Clouds
7:35 PM 55.4 °F - 33.8 °F 44% 29.95 in 10.0 mi East 5.8 mph - N/A   Scattered Clouds
7:55 PM 55.4 °F - 32.0 °F 41% 29.95 in 10.0 mi East 5.8 mph - N/A   Clear
8:15 PM 53.6 °F - 35.6 °F 51% 29.95 in 10.0 mi East 6.9 mph - N/A   Clear
8:35 PM 51.8 °F - 35.6 °F 54% 29.95 in 10.0 mi ENE 6.9 mph - N/A   Clear
8:55 PM 50.0 °F - 35.6 °F 58% 29.95 in 10.0 mi ENE 5.8 mph - N/A   Clear
9:15 PM 50.0 °F - 35.6 °F 58% 29.96 in 10.0 mi NE 6.9 mph - N/A   Clear
9:35 PM 46.4 °F 43.5 °F 33.8 °F 62% 29.96 in 10.0 mi ENE 5.8 mph - N/A   Clear
9:55 PM 48.2 °F - 33.8 °F 58% 29.96 in 10.0 mi ENE 11.5 mph 16.1 mph N/A   Clear
10:15 PM 46.4 °F 41.5 °F 32.0 °F 57% 29.97 in 10.0 mi ENE 10.4 mph - N/A   Clear
10:35 PM 44.6 °F 40.2 °F 32.0 °F 61% 29.98 in 10.0 mi NE 8.1 mph - N/A   Clear
10:55 PM 44.6 °F 40.7 °F 32.0 °F 61% 29.98 in 10.0 mi ENE 6.9 mph - N/A   Clear
11:15 PM 42.8 °F 39.3 °F 32.0 °F 66% 29.97 in 10.0 mi East 5.8 mph - N/A   Clear
11:35 PM 42.8 °F 40.1 °F 32.0 °F 66% 29.98 in 10.0 mi ENE 4.6 mph - N/A   Clear
11:55 PM 42.8 °F 40.1 °F 32.0 °F 66% 29.98 in 10.0 mi ENE 4.6 mph - N/A   Clear